カタログに戻る

STARLINK-30774

運用中通信VLEO
NORAD 58625·PAYLOAD·🇺🇸 United States

打ち上げ Dec 23, 2023 から Cape Canaveral Space Force Station

Loading…

次のパス (今後24時間)

TLE

最新Source: CelesTrak SupGP

元期: Sep 15, 2026, 02:29 UTC

1 58625C 23203H   26258.10395833 -.00009124  00000+0 -33041-3 0  2580
2 58625  43.0000  77.3405 0001493 271.7332 328.3617 15.27589658    10

AllMySatでSTARLINK-30774をリアルタイム追跡

Download on the App Store